Weather History for PAJN - August, 2014

Change the Weather History Date:

Monday, August 25, 2014

  Actual Average Record
Temperature  
Mean Temperature 55 °F 54 °F  
Max Temperature 61 °F 61 °F 77 °F (1963)
Min Temperature 48 °F 48 °F 27 °F (1948)
Degree Days  
Heating Degree Days 10 11  
Month to date heating degree days 174 217  
Since 1 June heating degree days 754 783  
Since 1 July heating degree days 404 468  
Cooling Degree Days 0 0  
Month to date cooling degree days 0 0  
Year to date cooling degree days 0 2  
Since 1 June cooling degree days 0 2  
Growing Degree Days 8 (Base 50)    
Moisture  
Dew Point 55 °F    
Average Humidity 94    
Maximum Humidity 100    
Minimum Humidity 87    
Precipitation  
Precipitation 0.13 in 0.21 in 1.73 in (1950)
Month to date precipitation 7.01 4.38  
Year to date precipitation 42.58 31.82  
Sea Level Pressure  
Sea Level Pressure 29.89 in    
Wind  
Wind Speed 10 mph (East)    
Max Wind Speed 17 mph    
Max Gust Speed 23 mph    
Visibility 7 miles    
Events Fog , Rain    
T = Trace of Precipitation, MM = Missing Value Source: NWS Daily Summary

Daily Weather History Graph

Daily Weather History Graph

Search for Another Location

Airport or City:

Trip Planner

Search our weather history database for the weather conditions in past years. The results will help you decide how hot, cold, wet, or windy it might be!

Date:

Astronomy

Aug. 25, 2014 Rise Set
Actual Time 5:42 AM AKDT 8:16 PM AKDT
Civil Twilight 4:58 AM AKDT 9:00 PM AKDT
Nautical Twilight 3:59 AM AKDT 9:58 PM AKDT
Astronomical Twilight 2:40 AM AKDT 11:15 PM AKDT
Moon 6:08 AM AKDT (8/25) 7:50 PM AKDT (8/25)
Length of Visible Light 16h 02m
Length of Day
14h 34m
New Moon, 0% of the Moon is Illuminated
Aug 25
New Moon
Sep 2
First Quarter
Sep 8
Full
Sep 15
Last Quarter
Sep 23
New

Hourly Weather History & Observations

Time (AKDT) Temp. Dew Point Humidity Pressure Visibility Wind Dir Wind Speed Gust Speed Precip Events Conditions
12:28 AM 55.0 °F 54.0 °F 96% 29.90 in 4.0 mi East 11.5 mph - 0.01 in Rain Light Rain
12:53 AM 55.0 °F 54.0 °F 96% 29.90 in 4.0 mi East 13.8 mph - 0.02 in Rain Light Rain
1:32 AM 55.0 °F 54.0 °F 96% 29.89 in 5.0 mi East 12.7 mph - 0.01 in Rain Light Rain
1:53 AM 55.9 °F 54.0 °F 93% 29.89 in 5.0 mi East 12.7 mph - 0.01 in Rain Light Rain
2:53 AM 55.0 °F 54.0 °F 96% 29.89 in 4.0 mi East 16.1 mph - 0.01 in Rain Light Rain
3:53 AM 55.9 °F 55.0 °F 97% 29.89 in 4.0 mi East 15.0 mph - 0.03 in Rain Light Rain
4:53 AM 55.9 °F 55.0 °F 97% 29.89 in 4.0 mi East 11.5 mph - 0.02 in Rain Light Rain
5:53 AM 55.9 °F 55.0 °F 97% 29.88 in 5.0 mi East 15.0 mph - 0.01 in Rain Light Rain
6:53 AM 55.9 °F 55.0 °F 97% 29.89 in 4.0 mi East 15.0 mph 23.0 mph 0.01 in   Overcast
7:53 AM 55.9 °F 55.0 °F 97% 29.88 in 4.0 mi East 12.7 mph - 0.01 in Rain Light Rain
8:53 AM 55.9 °F 55.0 °F 97% 29.88 in 4.0 mi East 12.7 mph - 0.01 in   Overcast
9:53 AM 57.0 °F 55.9 °F 96% 29.88 in 7.0 mi East 12.7 mph - 0.00 in Rain Light Rain
10:53 AM 57.0 °F 55.9 °F 96% 29.88 in 9.0 mi East 15.0 mph - 0.01 in Rain Light Rain
11:53 AM 57.9 °F 55.9 °F 93% 29.88 in 10.0 mi East 11.5 mph - 0.00 in   Overcast
12:53 PM 57.0 °F 55.9 °F 96% 29.88 in 6.0 mi East 11.5 mph - 0.00 in Rain Light Rain
1:53 PM 57.0 °F 55.9 °F 96% 29.88 in 10.0 mi East 11.5 mph - 0.00 in   Overcast
2:53 PM 59.0 °F 57.0 °F 93% 29.88 in 10.0 mi East 15.0 mph - N/A   Overcast
3:53 PM 59.0 °F 55.9 °F 90% 29.87 in 10.0 mi East 12.7 mph - 0.00 in   Overcast
4:38 PM 60.1 °F 57.0 °F 90% 29.87 in 10.0 mi ESE 8.1 mph - 0.00 in Rain Light Rain
4:53 PM 60.1 °F 57.0 °F 90% 29.88 in 10.0 mi NE 6.9 mph - 0.01 in Rain Light Rain
5:53 PM 60.8 °F 57.2 °F 88% 29.88 in 10.0 mi NE 6.9 mph - N/A   Mostly Cloudy
6:53 PM 60.8 °F 57.2 °F 88% 29.89 in 10.0 mi ENE 5.8 mph - N/A   Mostly Cloudy
7:53 PM 59.0 °F 57.0 °F 93% 29.89 in 10.0 mi East 4.6 mph - N/A   Mostly Cloudy
8:53 PM 57.0 °F 55.9 °F 96% 29.90 in 8.0 mi Calm Calm - N/A Fog Patches of Fog
9:53 PM 55.0 °F 54.0 °F 96% 29.91 in 10.0 mi South 3.5 mph - N/A   Scattered Clouds
10:53 PM 54.0 °F 53.1 °F 97% 29.91 in 10.0 mi Calm Calm - N/A   Overcast
11:29 PM 54.0 °F 53.1 °F 97% 29.91 in 9.0 mi NE 3.5 mph - N/A   Overcast
11:53 PM 52.0 °F 51.1 °F 97% 29.91 in 7.0 mi SE 4.6 mph - N/A   Overcast